DW8556 Weather Reports


time (UTC)temp
F
wind
direction
speed
knots
gust
knots
rain 1hr
in
rain 24hr
in
rain mn
in
humidity
%
barometer
mb
20260510150016 81 252 2.6 3.5 0.00 0.52 0.00 71 1022.0
20260510145510 81 195 0.0 3.5 0.00 0.52 0.00 74 1022.1
20260510145005 80 270 0.9 3.5 0.00 0.52 0.00 75 1022.1
20260510144603 79 269 0.9 3.5 0.00 0.52 0.00 75 1022.2
20260510144057 79 269 0.9 3.5 0.00 0.52 0.00 76 1022.1
20260510143558 79 268 1.7 4.3 0.00 0.52 0.00 76 1022.1
20260510143053 78 268 0.0 4.3 0.00 0.52 0.00 76 1022.1
20260510142547 78 220 0.9 2.6 0.00 0.52 0.00 77 1022.1
20260510142045 78 265 1.7 2.6 0.00 0.52 0.00 77 1022.0
20260510141541 77 76 0.9 2.6 0.00 0.52 0.00 79 1022.0
20260510141039 76 281 0.9 2.6 0.00 0.52 0.00 80 1021.8
20260510140535 76 262 0.0 1.7 0.00 0.52 0.00 81 1021.8
20260510140031 75 266 0.0 0.9 0.00 0.52 0.00 82 1021.8
20260510135528 75 268 0.0 1.7 0.00 0.52 0.00 82 1021.8
20260510135024 74 252 0.0 1.7 0.00 0.52 0.00 82 1021.8
20260510134520 74 263 0.0 1.7 0.00 0.52 0.00 82 1021.8
20260510134016 74 123 0.9 1.7 0.00 0.52 0.00 83 1021.8
20260510133515 74 149 0.0 0.9 0.00 0.52 0.00 83 1021.7
20260510133012 73 268 0.0 2.6 0.00 0.52 0.00 83 1021.8
20260510132510 73 246 0.0 2.6 0.00 0.52 0.00 83 1021.7
20260510132007 73 258 0.0 0.9 0.00 0.52 0.00 83 1021.6
20260510131509 73 193 0.0 1.7 0.00 0.52 0.00 83 1021.5
20260510131002 73 172 0.0 1.7 0.00 0.52 0.00 83 1021.5
20260510130502 73 158 0.0 0.9 0.00 0.52 0.00 83 1021.5
20260510130058 72 72 0.0 0.9 0.00 0.52 0.00 83 1021.6
20260510125554 72 96 0.0 1.7 0.00 0.52 0.00 83 1021.5
20260510125049 72 155 0.0 1.7 0.00 0.52 0.00 83 1021.5
20260510124555 71 136 0.0 0.9 0.00 0.52 0.00 83 1021.5
20260510124046 71 136 0.0 0.9 0.00 0.52 0.00 83 1021.5
20260510123541 71 138 0.0 0.0 0.00 0.52 0.00 83 1021.3
20260510123037 71 138 0.0 0.0 0.00 0.52 0.00 83 1021.3
20260510122532 70 138 0.0 0.0 0.00 0.52 0.00 83 1021.2
20260510122028 70 138 0.0 0.0 0.00 0.52 0.00 83 1021.2
20260510121525 70 138 0.0 0.0 0.00 0.52 0.00 83 1021.1
20260510121023 70 138 0.0 0.0 0.00 0.52 0.00 83 1021.1
20260510120522 70 138 0.0 0.0 0.00 0.52 0.00 83 1021.0
20260510120019 69 138 0.0 0.0 0.00 0.52 0.00 83 1020.9
20260510115509 69 138 0.0 0.0 0.00 0.52 0.00 83 1020.7
20260510115008 69 138 0.0 0.0 0.00 0.52 0.00 83 1020.7
20260510114511 69 138 0.0 0.0 0.00 0.52 0.00 83 1020.7
20260510114002 69 138 0.0 0.0 0.00 0.52 0.00 83 1020.6
20260510113559 68 138 0.0 0.0 0.00 0.52 0.00 83 1020.6
20260510113056 68 138 0.0 0.0 0.00 0.52 0.00 83 1020.4
20260510112556 68 138 0.0 0.0 0.00 0.52 0.00 83 1020.4
20260510112050 68 138 0.0 0.0 0.00 0.52 0.00 83 1020.3
20260510111551 68 138 0.0 0.0 0.00 0.52 0.00 83 1020.3
20260510111044 68 138 0.0 0.0 0.00 0.52 0.00 83 1020.2
20260510110543 68 138 0.0 0.0 0.00 0.52 0.00 83 1020.0
20260510110044 68 138 0.0 0.0 0.00 0.52 0.00 83 1020.0
20260510105537 68 138 0.0 0.0 0.00 0.52 0.00 83 1019.9
20260510105035 68 138 0.0 0.0 0.00 0.52 0.00 83 1019.9
20260510104530 68 138 0.0 0.0 0.00 0.52 0.00 83 1019.8
20260510104028 68 138 0.0 0.0 0.00 0.52 0.00 83 1019.8
20260510103525 68 138 0.0 0.0 0.00 0.52 0.00 83 1019.7
20260510103022 68 138 0.0 0.0 0.00 0.52 0.00 83 1019.7
20260510102521 68 138 0.0 0.0 0.00 0.52 0.00 83 1019.7
20260510102022 68 138 0.0 0.0 0.00 0.52 0.00 83 1019.4
20260510101515 68 138 0.0 0.0 0.00 0.52 0.00 83 1019.4
20260510101013 68 138 0.0 0.0 0.00 0.52 0.00 83 1019.4
20260510100510 68 138 0.0 0.0 0.00 0.52 0.00 83 1019.4
20260510100007 68 138 0.0 0.0 0.00 0.52 0.00 83 1019.3
20260510095503 68 138 0.0 0.0 0.00 0.52 0.00 83 1019.2
20260510095005 67 138 0.0 0.0 0.00 0.52 0.00 83 1019.1
20260510094613 67 138 0.0 0.0 0.00 0.52 0.00 83 1019.1
20260510094055 67 138 0.0 0.0 0.00 0.52 0.00 83 1019.2
20260510093554 67 138 0.0 0.0 0.00 0.52 0.00 83 1019.2
20260510093111 67 138 0.0 0.0 0.00 0.52 0.00 83 1019.1
20260510092549 67 138 0.0 0.0 0.00 0.52 0.00 83 1019.1
20260510092048 67 138 0.0 0.0 0.00 0.52 0.00 83 1019.0
20260510091546 67 138 0.0 0.0 0.00 0.52 0.00 83 1018.9
20260510091046 67 138 0.0 0.0 0.00 0.52 0.00 83 1019.0
20260510090543 67 138 0.0 0.0 0.00 0.52 0.00 83 1018.8
20260510090045 67 138 0.0 0.0 0.00 0.52 0.00 83 1018.8
20260510085542 67 138 0.0 0.0 0.00 0.52 0.00 83 1018.8
20260510085043 67 138 0.0 0.0 0.00 0.52 0.00 83 1018.7
20260510084539 68 138 0.0 0.0 0.00 0.52 0.00 83 1018.7
20260510084037 68 138 0.0 0.0 0.00 0.52 0.00 83 1018.6
20260510083534 68 138 0.0 0.0 0.00 0.52 0.00 83 1018.6
20260510083048 68 138 0.0 0.0 0.00 0.52 0.00 83 1018.4
20260510082529 68 138 0.0 0.0 0.00 0.52 0.00 83 1018.4
20260510082029 68 138 0.0 0.0 0.00 0.52 0.00 83 1018.5
20260510081525 68 138 0.0 0.0 0.00 0.52 0.00 83 1018.5
20260510081022 68 138 0.0 0.0 0.00 0.52 0.00 83 1018.4
20260510080520 68 138 0.0 0.0 0.00 0.52 0.00 83 1018.3
20260510080024 68 138 0.0 0.0 0.00 0.52 0.00 83 1018.3
20260510075517 68 138 0.0 0.0 0.00 0.52 0.00 83 1018.3
20260510075016 68 138 0.0 0.0 0.00 0.52 0.00 83 1018.3
20260510074513 68 138 0.0 0.0 0.00 0.52 0.00 83 1018.3
20260510074017 68 138 0.0 0.0 0.00 0.52 0.00 83 1018.4
20260510073511 68 138 0.0 0.0 0.00 0.52 0.00 83 1018.4
20260510073018 68 138 0.0 0.0 0.00 0.52 0.00 83 1018.4
20260510072509 68 138 0.0 0.0 0.00 0.52 0.00 83 1018.4
20260510072004 68 138 0.0 0.0 0.00 0.52 0.00 83 1018.4
20260510071501 68 138 0.0 0.0 0.00 0.52 0.00 83 1018.4
20260510071059 68 138 0.0 0.0 0.00 0.52 0.00 83 1018.4
20260510070559 68 138 0.0 0.0 0.00 0.52 0.00 83 1018.4
20260510070055 68 138 0.0 0.0 0.00 0.52 0.00 83 1018.4
20260510065554 68 138 0.0 0.0 0.00 0.52 0.00 83 1018.4
20260510065050 68 138 0.0 0.0 0.00 0.52 0.00 83 1018.4
20260510064558 68 138 0.0 0.0 0.00 0.52 0.00 83 1018.4
20260510064044 69 138 0.0 0.0 0.00 0.52 0.00 83 1018.5
20260510063543 69 138 0.0 0.0 0.00 0.52 0.00 83 1018.5
20260510063040 69 126 0.0 0.0 0.00 0.52 0.00 83 1018.5
20260510062539 69 126 0.0 0.9 0.00 0.52 0.00 83 1018.5
20260510062035 69 120 0.0 0.9 0.00 0.52 0.00 83 1018.6
20260510061534 69 120 0.0 0.9 0.00 0.52 0.00 83 1018.6
20260510061027 69 145 0.0 0.9 0.00 0.52 0.00 83 1018.7
20260510060525 69 148 0.0 1.7 0.00 0.52 0.00 83 1018.9
20260510060035 69 148 0.0 1.7 0.00 0.52 0.00 83 1018.9
20260510055518 69 203 0.0 0.9 0.00 0.52 0.00 83 1018.8
20260510055016 69 167 0.0 0.9 0.00 0.52 0.00 83 1018.9
20260510054513 69 135 0.0 0.9 0.00 0.52 0.00 83 1018.9
20260510054014 69 169 0.0 2.6 0.00 0.52 0.00 83 1019.0
20260510053509 69 239 0.0 2.6 0.00 0.52 0.00 83 1019.1
20260510053004 69 205 0.0 2.6 0.00 0.52 0.00 83 1019.0
20260510052504 69 209 0.0 2.6 0.00 0.52 0.00 83 1019.1
20260510052100 69 195 0.0 2.6 0.00 0.52 0.00 83 1019.1
20260510051604 69 195 0.0 1.7 0.00 0.52 0.00 83 1019.1
20260510051055 69 160 0.0 1.7 0.00 0.52 0.00 83 1019.2
20260510050557 69 124 0.0 2.6 0.00 0.52 0.00 83 1019.3
20260510050050 69 98 0.0 2.6 0.00 0.52 0.00 83 1019.3
20260510045545 69 91 0.0 1.7 0.00 0.52 0.00 83 1019.4
20260510045040 68 79 0.0 2.6 0.00 0.52 0.00 83 1019.6
20260510044539 68 153 0.0 0.9 0.00 0.52 0.00 83 1019.7
20260510044036 68 158 0.0 0.9 0.00 0.52 0.00 83 1019.8
20260510043534 68 128 0.0 0.9 0.00 0.52 0.00 83 1019.9
20260510043034 68 159 0.0 0.0 0.00 0.52 0.00 83 1019.9
20260510042525 68 156 0.0 0.0 0.00 0.52 0.00 83 1020.0
20260510042023 68 156 0.0 0.0 0.01 0.52 0.00 83 1020.0
20260510041521 68 191 0.0 0.0 0.01 0.52 0.00 83 1020.2
20260510041017 68 191 0.0 0.0 0.01 0.52 0.00 83 1020.2
20260510040515 68 189 0.0 0.0 0.01 0.52 0.00 83 1020.2
20260510040013 68 191 0.0 0.0 0.01 0.52 0.00 83 1020.3
20260510035510 68 191 0.0 0.0 0.01 0.52 0.52 83 1020.3
20260510035010 68 191 0.0 0.0 0.01 0.52 0.52 83 1020.3
20260510034513 68 191 0.0 0.0 0.01 0.52 0.52 82 1020.3
20260510034004 68 191 0.0 0.9 0.01 0.52 0.52 82 1020.3
20260510033602 68 120 0.0 0.9 0.01 0.52 0.52 82 1020.2
20260510033108 68 120 0.0 0.9 0.01 0.52 0.52 82 1020.1
20260510032555 68 120 0.0 0.9 0.01 0.52 0.52 82 1020.0
20260510032052 68 120 0.0 0.0 0.00 0.51 0.51 82 1020.1
20260510031549 68 120 0.0 0.0 0.00 0.51 0.51 82 1020.2
20260510031046 68 120 0.0 0.0 0.00 0.51 0.51 82 1020.3
20260510030542 68 120 0.0 0.9 0.00 0.51 0.51 82 1020.2
20260510030050 69 120 0.0 0.9 0.00 0.51 0.51 82 1020.2
20260510025538 69 114 0.0 0.9 0.00 0.51 0.51 82 1020.1
20260510025035 69 121 0.0 0.9 0.00 0.51 0.51 82 1020.1
20260510024533 69 122 0.0 0.9 0.00 0.51 0.51 82 1020.1
20260510024031 69 105 0.0 0.9 0.00 0.51 0.51 82 1020.0
20260510023529 69 128 0.0 0.9 0.00 0.51 0.51 82 1020.0
20260510023025 69 129 0.0 0.9 0.00 0.51 0.51 82 1020.0
20260510022526 69 129 0.0 0.9 0.00 0.51 0.51 82 1020.1
20260510022023 69 129 0.0 0.9 0.00 0.51 0.51 82 1019.9
20260510021521 69 116 0.0 0.9 0.00 0.51 0.51 82 1019.7
20260510021018 69 116 0.0 0.0 0.00 0.51 0.51 82 1019.6
20260510020520 69 116 0.0 0.0 0.00 0.51 0.51 82 1019.7
20260510020016 69 116 0.0 0.9 0.00 0.51 0.51 82 1019.6
20260510015513 69 116 0.0 0.9 0.00 0.51 0.51 82 1019.4
20260510015011 69 117 0.0 0.9 0.00 0.51 0.51 82 1019.5
20260510014511 69 98 0.0 0.9 0.00 0.51 0.51 82 1019.2
20260510014008 69 90 0.0 0.9 0.00 0.51 0.51 82 1018.9
20260510013508 69 138 0.0 0.0 0.00 0.51 0.51 82 1019.1
20260510013007 69 138 0.0 0.9 0.00 0.51 0.51 82 1019.1
20260510012502 69 138 0.0 0.0 0.00 0.51 0.51 82 1019.0
20260510012059 69 138 0.0 0.9 0.00 0.51 0.51 82 1018.8
20260510011557 69 138 0.0 0.9 0.00 0.51 0.51 82 1018.8
20260510011054 69 137 0.0 0.9 0.00 0.51 0.51 82 1018.7
20260510010549 69 77 0.0 0.0 0.00 0.51 0.51 81 1018.8
20260510010047 69 77 0.0 0.0 0.00 0.51 0.51 81 1018.9
20260510005547 69 77 0.0 0.9 0.00 0.51 0.51 81 1018.9
20260510005042 69 77 0.0 0.9 0.00 0.51 0.51 81 1018.7
20260510004547 69 76 0.0 0.9 0.00 0.51 0.51 81 1018.4
20260510004039 69 77 0.0 0.9 0.00 0.51 0.51 81 1018.4
20260510003537 69 77 0.0 0.0 0.00 0.51 0.51 81 1018.3
20260510003038 69 76 0.0 0.9 0.00 0.51 0.51 81 1018.2
20260510002529 69 77 0.0 0.9 0.00 0.51 0.51 81 1018.2
20260510002026 69 60 0.0 0.9 0.00 0.51 0.51 80 1018.4
20260510001524 69 6 0.0 0.0 0.02 0.51 0.51 80 1018.8
20260510001020 69 6 0.0 0.9 0.03 0.51 0.51 80 1018.6
20260510000517 69 6 0.0 0.9 0.03 0.51 0.51 80 1018.6
20260510000020 69 75 0.0 1.7 0.04 0.51 0.51 80 1018.6
20260509235514 69 79 0.0 1.7 0.05 0.51 0.51 80 1018.5
20260509235012 69 100 0.0 0.9 0.06 0.51 0.51 79 1018.7
20260509234514 69 100 0.0 0.9 0.07 0.51 0.51 79 1018.4
20260509234006 69 100 0.0 0.9 0.10 0.51 0.51 79 1018.4
20260509233504 70 38 0.0 0.9 0.12 0.51 0.51 79 1018.4
20260509233001 70 37 0.0 0.9 0.14 0.51 0.51 79 1018.4
20260509232559 70 37 0.0 0.9 0.15 0.51 0.51 78 1018.6
20260509232055 70 47 0.0 0.9 0.16 0.51 0.51 78 1018.6
20260509231550 70 4 0.0 0.0 0.00 0.00 0.49 78 1019.0
20260509231047 70 51 0.0 0.9 0.13 0.48 0.48 78 1019.0
20260509230545 70 328 0.0 0.0 0.13 0.48 0.48 78 1019.1
20260509230044 70 292 0.0 0.9 0.12 0.47 0.47 76 1019.2
20260509225542 70 292 0.0 0.9 0.12 0.46 0.46 75 1019.2
20260509225043 70 19 0.0 1.7 0.12 0.45 0.45 75 1019.2
20260509224538 70 279 0.0 3.5 0.11 0.44 0.44 74 1019.2
20260509224035 70 292 0.0 3.5 0.08 0.41 0.41 74 1019.4
20260509223534 71 261 0.0 0.9 0.06 0.39 0.39 73 1019.4
20260509223035 71 304 0.0 0.9 0.04 0.37 0.37 73 1019.5
20260509222530 71 266 0.0 0.9 0.03 0.36 0.36 73 1019.5
20260509222029 71 264 0.0 0.9 0.02 0.35 0.35 73 1019.3
20260509221525 71 243 0.0 0.9 0.02 0.35 0.35 73 1019.1
20260509221023 71 289 0.0 0.9 0.02 0.35 0.35 72 1019.0
20260509220520 72 265 0.0 0.9 0.02 0.35 0.35 72 1018.9
20260509220025 72 313 0.0 0.9 0.01 0.34 0.34 72 1018.9
20260509215517 72 294 0.0 0.9 0.00 0.33 0.33 72 1018.9
20260509215013 72 293 0.0 0.9 0.00 0.33 0.33 72 1018.9
20260509214512 72 274 0.0 0.9 0.00 0.33 0.33 73 1018.8
20260509214014 72 257 0.0 2.6 0.00 0.33 0.33 74 1018.7
20260509213506 72 326 0.0 2.6 0.00 0.33 0.33 74 1018.5
20260509213004 72 307 0.0 1.7 0.00 0.33 0.33 75 1018.4
20260509212502 72 264 0.0 1.7 0.00 0.33 0.33 75 1018.4
20260509212003 72 303 0.0 1.7 0.00 0.33 0.33 75 1018.4
20260509211559 71 321 0.0 1.7 0.00 0.33 0.33 75 1018.4
20260509211057 72 315 0.0 0.9 0.00 0.33 0.33 75 1018.3
20260509210553 71 360 0.0 0.9 0.00 0.33 0.33 75 1018.3
20260509205549 71 336 0.0 0.9 0.01 0.36 0.33 74 1018.3
20260509205047 71 359 0.0 3.5 0.01 0.36 0.33 74 1018.3
20260509204546 71 274 0.0 3.5 0.01 0.36 0.33 73 1018.4
20260509204044 71 318 0.0 4.3 0.01 0.36 0.33 73 1018.3
20260509203541 71 34 0.0 4.3 0.01 0.36 0.33 73 1018.3
20260509203040 72 345 0.0 3.5 0.01 0.36 0.33 73 1018.3
20260509202535 72 16 0.0 6.1 0.01 0.36 0.33 72 1018.2
20260509202030 72 324 0.0 6.1 0.01 0.36 0.33 72 1018.0
20260509201526 73 306 0.0 4.3 0.01 0.36 0.33 72 1017.9
20260509201025 74 302 0.9 4.3 0.01 0.36 0.33 72 1018.1
20260509200518 75 53 0.9 3.5 0.01 0.36 0.33 79 1017.9
20260509200016 75 317 0.9 2.6 0.01 0.36 0.33 79 1017.8
20260509195514 76 322 0.0 2.6 0.02 0.35 0.32 80 1017.9
20260509195011 76 334 0.0 2.6 0.06 0.35 0.32 80 1018.0
20260509194513 76 18 0.0 3.5 0.10 0.35 0.32 80 1018.1
20260509194009 76 312 0.0 3.5 0.12 0.35 0.32 80 1018.0
20260509193508 76 259 0.0 1.7 0.12 0.35 0.32 80 1018.0
20260509193005 75 323 0.0 1.7 0.12 0.35 0.32 80 1017.9
20260509192502 75 355 0.0 0.9 0.12 0.35 0.32 79 1018.0
20260509192100 75 357 0.0 0.9 0.12 0.35 0.32 79 1018.0
20260509191557 75 357 0.0 6.1 0.13 0.35 0.32 77 1018.1
20260509191056 75 326 0.9 6.1 0.13 0.35 0.32 75 1018.3
20260509190553 75 269 1.7 3.5 0.13 0.35 0.32 74 1018.1
20260509190047 75 70 0.0 0.9 0.18 0.35 0.32 73 1018.4
20260509185544 75 155 0.0 0.9 0.26 0.33 0.30 72 1018.6
20260509185040 75 143 0.0 0.9 0.22 0.28 0.26 72 1018.6
20260509184549 75 278 0.0 0.9 0.18 0.25 0.22 71 1018.6
20260509184032 75 297 0.0 0.9 0.16 0.23 0.20 71 1018.4
20260509183526 75 271 0.0 0.9 0.16 0.23 0.20 71 1018.4
20260509183025 75 271 0.0 0.9 0.16 0.23 0.20 70 1018.5
20260509182523 74 282 0.0 0.9 0.17 0.23 0.20 70 1018.3
20260509182020 75 328 0.0 0.9 0.20 0.23 0.20 70 1018.5
20260509181515 75 320 0.0 1.7 0.19 0.22 0.19 70 1018.4
20260509181012 75 248 0.0 1.7 0.19 0.22 0.19 69 1018.5
20260509180509 76 318 0.0 4.3 0.18 0.21 0.18 69 1018.5
20260509180008 76 347 0.9 4.3 0.13 0.16 0.13 69 1018.6
20260509175504 77 311 0.0 0.9 0.04 0.07 0.04 69 1018.5
20260509175100 77 252 0.0 0.9 0.04 0.07 0.04 68 1018.4
20260509174557 77 250 0.0 0.9 0.04 0.07 0.04 68 1018.5
20260509174054 78 321 0.0 0.9 0.04 0.07 0.04 68 1018.5
20260509173550 79 280 0.0 3.5 0.04 0.07 0.04 67 1018.5
20260509173049 80 268 0.0 3.5 0.04 0.07 0.04 64 1018.6
20260509172544 82 290 0.0 3.5 0.03 0.06 0.03 59 1018.5
20260509172043 83 307 0.0 2.6 0.00 0.03 0.00 55 1018.5
20260509171538 83 239 0.0 2.6 0.00 0.03 0.00 56 1018.5
20260509171035 83 352 0.0 2.6 0.00 0.03 0.00 57 1018.6
20260509170532 83 259 0.9 2.6 0.00 0.03 0.00 57 1018.7
20260509170037 83 255 0.9 3.5 0.00 0.03 0.00 58 1018.8
20260509165522 83 263 0.0 3.5 0.00 0.03 0.00 58 1018.7
20260509165020 83 269 0.0 2.6 0.00 0.03 0.00 58 1018.8
20260509164531 83 261 0.0 2.6 0.00 0.03 0.00 57 1018.7
20260509164020 83 270 0.9 2.6 0.00 0.03 0.00 56 1018.9
20260509163511 83 203 0.9 3.5 0.00 0.03 0.00 57 1018.8
20260509163007 83 205 0.0 3.5 0.00 0.03 0.00 58 1018.8
20260509162507 83 169 0.9 3.5 0.00 0.03 0.00 57 1018.8
20260509162001 83 184 0.9 4.3 0.00 0.03 0.00 58 1018.9
20260509161608 82 193 0.9 4.3 0.00 0.03 0.00 58 1019.0
20260509161101 82 270 0.9 5.2 0.00 0.03 0.00 59 1018.9
20260509160557 82 251 0.9 5.2 0.00 0.03 0.00 59 1019.0
20260509160051 82 255 0.9 4.3 0.00 0.03 0.00 60 1018.9
20260509155545 81 181 1.7 4.3 0.00 0.03 0.00 60 1018.9
20260509155042 81 174 1.7 4.3 0.00 0.03 0.00 61 1019.0
20260509154540 80 269 0.0 2.6 0.00 0.03 0.00 62 1018.8
20260509154033 80 82 0.0 1.7 0.00 0.03 0.00 63 1018.6
20260509153527 79 266 0.9 2.6 0.00 0.03 0.00 62 1018.5
20260509153035 79 162 0.0 1.7 0.00 0.03 0.00 63 1018.5
20260509152523 79 261 0.0 2.6 0.00 0.03 0.00 63 1018.6
20260509152018 79 145 0.0 1.7 0.00 0.03 0.00 63 1018.6
20260509151516 79 264 0.0 2.6 0.00 0.03 0.00 64 1018.7
20260509151009 79 268 0.0 2.6 0.00 0.03 0.00 63 1018.7
20260509150508 78 290 0.0 2.6 0.00 0.03 0.00 64 1018.6